When you browse on this site, cookies collect data to enhance your experience and personalize the content and advertising you see.
Visit our Privacy Policy to learn more. By continuing to use the site, you agree to this use of cookies and data.
  • In Hungary
  • List of Countries
  • For 7 days
  • Water Temperature
  • Satellite Maps
  • Weather Map
  • News
  • Weather Widgets
  • user-avatar
    Login

    Hourly Weather Ischgl

    Today, 14 December, Friday

    Time Temperature Precipitation Wind Pressure Humidity
    00:00 -21°C° 0 mm 2 mps 562 mmHg 67%
    01:00 -21°C° 0 mm 2 mps 562 mmHg 66%
    02:00 -21°C° 0 mm 2 mps 562 mmHg 65%
    03:00 -21°C° 0 mm 2 mps 562 mmHg 64%
    04:00 -21°C° 0 mm 2 mps 562 mmHg 63%
    05:00 -21°C° 0 mm 2 mps 562 mmHg 62%
    06:00 -21°C° 0 mm 2 mps 562 mmHg 60%
    07:00 -18°C° 0 mm 1 mps 562 mmHg 59%
    08:00 -17°C° 0 mm 1 mps 563 mmHg 59%
    09:00 -15°C° 0 mm 1 mps 564 mmHg 60%
    10:00 -13°C° 0 mm 1 mps 565 mmHg 61%
    11:00 -12°C° 0 mm 1 mps 566 mmHg 59%
    12:00 -10°C° 0 mm 1 mps 567 mmHg 56%
    13:00 -9°C° 0 mm 0 mps 568 mmHg 54%
    14:00 -11°C° 0 mm 0 mps 567 mmHg 61%
    15:00 -12°C° 0 mm 1 mps 566 mmHg 67%
    16:00 -14°C° 0 mm 1 mps 565 mmHg 74%
    17:00 -16°C° 0 mm 1 mps 565 mmHg 72%
    18:00 -17°C° 0 mm 1 mps 565 mmHg 70%
    19:00 -18°C° 0 mm 1 mps 564 mmHg 68%
    20:00 -18°C° 0 mm 1 mps 565 mmHg 65%
    21:00 -18°C° 0 mm 1 mps 565 mmHg 62%
    22:00 -18°C° 0 mm 1 mps 565 mmHg 59%
    23:00 -21°C° 0 mm 2 mps 565 mmHg 59%

    Tomorrow, 15 December, Saturday

    Time Temperature Precipitation Wind Pressure Humidity
    00:00 -21°C° 0 mm 2 mps 565 mmHg 59%
    01:00 -21°C° 0 mm 2 mps 565 mmHg 59%
    02:00 -21°C° 0 mm 2 mps 565 mmHg 60%
    03:00 -21°C° 0 mm 2 mps 565 mmHg 60%
    04:00 -21°C° 0 mm 2 mps 565 mmHg 60%
    05:00 -21°C° 0 mm 2 mps 566 mmHg 60%
    06:00 -21°C° 0 mm 2 mps 566 mmHg 60%
    07:00 -21°C° 0 mm 2 mps 566 mmHg 59%
    08:00 -19°C° 0 mm 2 mps 567 mmHg 62%
    09:00 -18°C° 0 mm 2 mps 568 mmHg 65%
    10:00 -16°C° 0 mm 2 mps 569 mmHg 68%
    11:00 -12°C° 0 mm 1 mps 569 mmHg 67%
    12:00 -11°C° 0 mm 1 mps 570 mmHg 66%
    13:00 -9°C° 0 mm 1 mps 570 mmHg 65%
    14:00 -10°C° 0 mm 1 mps 569 mmHg 68%
    15:00 -12°C° 0 mm 1 mps 568 mmHg 71%
    16:00 -13°C° 0 mm 1 mps 568 mmHg 75%
    17:00 -14°C° 0 mm 1 mps 567 mmHg 69%
    18:00 -15°C° 0 mm 1 mps 567 mmHg 64%
    19:00 -17°C° 0 mm 2 mps 567 mmHg 58%
    20:00 -17°C° 0 mm 2 mps 567 mmHg 53%
    21:00 -17°C° 0 mm 2 mps 567 mmHg 48%
    22:00 -17°C° 0 mm 2 mps 567 mmHg 43%
    23:00 -16°C° 0 mm 2 mps 567 mmHg 43%

    Day after tomorrow, 16 December, Sunday

    Time Temperature Precipitation Wind Pressure Humidity
    00:00 -15°C° 0 mm 2 mps 568 mmHg 44%
    01:00 -14°C° 0 mm 2 mps 568 mmHg 44%
    02:00 -13°C° 0 mm 2 mps 568 mmHg 48%
    03:00 -12°C° 0 mm 2 mps 568 mmHg 52%
    04:00 -10°C° 0 mm 2 mps 568 mmHg 56%
    05:00 -10°C° 0.4 mm 2 mps 568 mmHg 65%
    06:00 -9°C° 0.4 mm 2 mps 568 mmHg 73%
    07:00 -9°C° 0.4 mm 2 mps 569 mmHg 82%
    08:00 -8°C° 0.6 mm 2 mps 569 mmHg 83%
    09:00 -7°C° 0.6 mm 2 mps 570 mmHg 85%
    10:00 -4°C° 0.6 mm 1 mps 570 mmHg 86%
    11:00 -4°C° 0.1 mm 1 mps 570 mmHg 87%
    12:00 -3°C° 0.1 mm 1 mps 570 mmHg 89%
    13:00 -3°C° 0.1 mm 1 mps 570 mmHg 90%
    14:00 -3°C° 0.6 mm 1 mps 570 mmHg 91%
    15:00 -4°C° 0.6 mm 1 mps 570 mmHg 92%
    16:00 -4°C° 0.6 mm 1 mps 570 mmHg 94%
    17:00 -4°C° 0.8 mm 1 mps 570 mmHg 94%
    18:00 -6°C° 0.8 mm 1 mps 570 mmHg 95%
    19:00 -6°C° 0.8 mm 1 mps 570 mmHg 95%
    20:00 -6°C° 0.4 mm 1 mps 570 mmHg 95%
    21:00 -7°C° 0.4 mm 1 mps 570 mmHg 95%
    22:00 -7°C° 0.4 mm 1 mps 571 mmHg 95%
    23:00 -7°C° 0.3 mm 1 mps 570 mmHg 94%

    17 December, Monday

    Time Temperature Precipitation Wind Pressure Humidity
    00:00 -7°C° 0.3 mm 1 mps 570 mmHg 93%
    01:00 -8°C° 0.3 mm 1 mps 570 mmHg 93%
    02:00 -8°C° 0 mm 1 mps 570 mmHg 91%
    03:00 -9°C° 0 mm 1 mps 569 mmHg 90%
    04:00 -10°C° 0 mm 1 mps 569 mmHg 89%
    05:00 -11°C° 0 mm 1 mps 569 mmHg 86%
    06:00 -12°C° 0 mm 1 mps 569 mmHg 83%
    07:00 -13°C° 0 mm 1 mps 568 mmHg 81%
    08:00 -11°C° 0 mm 1 mps 569 mmHg 78%
    09:00 -10°C° 0 mm 1 mps 570 mmHg 76%
    10:00 -9°C° 0 mm 1 mps 571 mmHg 73%
    11:00 -8°C° 0 mm 1 mps 572 mmHg 73%
    12:00 -7°C° 0 mm 1 mps 572 mmHg 72%
    13:00 -4°C° 0 mm 1 mps 573 mmHg 72%
    14:00 -7°C° 0 mm 1 mps 572 mmHg 77%
    15:00 -8°C° 0 mm 1 mps 572 mmHg 81%
    16:00 -10°C° 0 mm 1 mps 571 mmHg 86%
    17:00 -11°C° 0 mm 1 mps 571 mmHg 87%
    18:00 -12°C° 0 mm 1 mps 571 mmHg 88%
    19:00 -15°C° 0 mm 2 mps 571 mmHg 89%
    20:00 -15°C° 0 mm 2 mps 572 mmHg 88%
    21:00 -15°C° 0 mm 2 mps 572 mmHg 87%
    22:00 -12°C° 0 mm 1 mps 573 mmHg 85%
    23:00 -13°C° 0 mm 1 mps 573 mmHg 85%

    18 December, Tuesday

    Time Temperature Precipitation Wind Pressure Humidity
    00:00 -13°C° 0 mm 1 mps 573 mmHg 85%
    01:00 -13°C° 0 mm 1 mps 573 mmHg 85%
    02:00 -13°C° 0 mm 1 mps 572 mmHg 83%
    03:00 -15°C° 0 mm 2 mps 572 mmHg 82%
    04:00 -15°C° 0 mm 2 mps 572 mmHg 80%
    05:00 -15°C° 0 mm 2 mps 572 mmHg 78%
    06:00 -15°C° 0 mm 2 mps 572 mmHg 76%
    07:00 -15°C° 0 mm 2 mps 573 mmHg 74%
    08:00 -14°C° 0 mm 2 mps 573 mmHg 72%
    09:00 -12°C° 0 mm 2 mps 574 mmHg 70%
    10:00 -10°C° 0 mm 2 mps 575 mmHg 68%
    11:00 -8°C° 0 mm 2 mps 575 mmHg 69%
    12:00 -7°C° 0 mm 2 mps 575 mmHg 69%
    13:00 -6°C° 0 mm 3 mps 576 mmHg 70%
    14:00 -7°C° 0 mm 3 mps 575 mmHg 70%
    15:00 -9°C° 0 mm 3 mps 574 mmHg 70%
    16:00 -10°C° 0 mm 3 mps 573 mmHg 70%
    17:00 -12°C° 0 mm 3 mps 573 mmHg 67%
    18:00 -12°C° 0 mm 3 mps 572 mmHg 64%
    19:00 -13°C° 0 mm 3 mps 572 mmHg 61%
    20:00 -14°C° 0 mm 4 mps 572 mmHg 60%
    21:00 -12°C° 0 mm 4 mps 572 mmHg 59%
    22:00 -12°C° 0 mm 4 mps 572 mmHg 58%
    23:00 -12°C° 0 mm 4 mps 572 mmHg 59%

    19 December, Wednesday

    Time Temperature Precipitation Wind Pressure Humidity
    00:00 -12°C° 0 mm 4 mps 572 mmHg 61%
    01:00 -12°C° 0 mm 4 mps 572 mmHg 62%
    02:00 -11°C° 0 mm 4 mps 572 mmHg 63%
    03:00 -10°C° 0 mm 3 mps 572 mmHg 65%
    04:00 -10°C° 0 mm 3 mps 572 mmHg 66%
    05:00 -10°C° 0 mm 3 mps 572 mmHg 67%
    06:00 -10°C° 0 mm 3 mps 572 mmHg 69%
    07:00 -10°C° 0 mm 3 mps 572 mmHg 70%
    08:00 -9°C° 0 mm 3 mps 572 mmHg 72%
    09:00 -9°C° 0 mm 3 mps 572 mmHg 75%
    10:00 -8°C° 0 mm 3 mps 572 mmHg 77%
    11:00 -7°C° 0 mm 3 mps 572 mmHg 79%
    12:00 -7°C° 0 mm 3 mps 572 mmHg 80%
    13:00 -6°C° 0 mm 3 mps 572 mmHg 82%
    14:00 -6°C° 0.1 mm 3 mps 572 mmHg 83%
    15:00 -7°C° 0.1 mm 3 mps 571 mmHg 85%
    16:00 -6°C° 0.1 mm 2 mps 571 mmHg 86%
    17:00 -7°C° 0.1 mm 2 mps 571 mmHg 86%
    18:00 -7°C° 0.1 mm 2 mps 571 mmHg 87%
    19:00 -7°C° 0.1 mm 2 mps 570 mmHg 87%
    20:00 -7°C° 0.2 mm 2 mps 570 mmHg 88%
    21:00 -8°C° 0.2 mm 2 mps 570 mmHg 88%
    22:00 -8°C° 0.2 mm 2 mps 570 mmHg 89%
    23:00 -8°C° 0.5 mm 2 mps 570 mmHg 90%
    Show more